[[{"header":{"parameterUnit":"m.s-1","parameterCategory":1,"la1":30.2991,"la2":30.254,"lo1":-89.0895,"lo2":-89.0444,"dy":0.0017,"dx":0.0017,"nx":28,"ny":28,"refTime":"2024-07-17T09:00:00:Z","depth":0,"parameterNumber":2,"parameterNumberName":"U-component_of_WINDS"},"data":[0,0,0,0,0,0,0,0,0,0,0,0,0,0,0,0,0,0,0,0,0,0,0,0,0,0,0,0,0,0,0,0,0,0,0,0,0,0,0,0,0,0,0,0,0,0,0,0,0,0,0,0,0,0,0,0,0,0,2.3273,2.3273,0,2.3301,2.3301,2.3301,2.3306,2.3306,2.3305,2.3305,2.3333,2.3334,2.3335,0,0,0,0,0,0,0,0,0,0,0,0,0,2.3222,2.3223,2.3273,2.3273,2.3274,2.3301,2.3301,2.3301,2.3306,2.3306,2.3305,2.3305,2.3332,2.3333,2.3335,0,0,0,0,0,0,0,0,0,0,0,0,0,2.3246,2.3223,2.3273,2.3279,2.328,2.3301,2.3301,2.3302,2.3306,2.3306,2.3305,2.3305,2.3332,2.3333,2.3335,2.3351,0,0,2.3339,2.334,0,0,0,0,0,0,0,0,2.3245,2.3248,2.3278,2.3279,2.328,2.3299,2.3293,2.3318,2.3306,2.3296,2.3305,2.3305,2.3322,2.3324,2.333,2.3352,2.3353,2.3339,2.334,2.3341,2.3341,0,0,0,0,0,0,0,2.3243,2.3247,2.3284,2.3278,2.3279,2.328,2.3283,2.3298,2.3311,2.3297,2.3297,2.3301,2.3322,2.3329,2.3331,2.3354,2.3339,2.3341,2.3341,2.3342,2.339,2.339,0,0,0,0,0,0,2.3241,2.3246,2.3283,2.3285,2.3261,2.3281,2.3285,2.3293,2.331,2.3313,2.3301,2.3301,2.3326,2.3329,2.3332,2.3351,2.3341,2.3342,2.3343,2.3389,2.339,2.339,0,0,0,0,0,0,2.324,2.3244,2.3282,2.3265,2.327,2.3283,2.3292,2.3294,2.3301,2.3313,2.3316,2.3305,2.3326,2.333,2.3346,2.3352,2.3343,2.3344,2.3389,2.339,2.339,2.3391,0,0,0,0,0,0,2.3238,2.3244,2.325,2.3265,2.3271,2.3296,2.3293,2.3295,2.3303,2.3303,2.3318,2.332,2.3326,2.3344,2.3347,2.3354,2.3345,2.3388,2.3389,2.339,2.339,2.3392,2.3393,0,0,0,0,0,2.3236,2.3249,2.325,2.3255,2.328,2.3296,2.33,2.3307,2.3304,2.331,2.3318,2.332,2.3351,2.3345,2.335,2.3357,2.3388,2.3389,2.339,2.339,2.3391,2.3393,0,0,0,0,0,0,2.3234,2.3251,2.3253,2.3271,2.3282,2.3297,2.3306,2.3308,2.332,2.3319,2.3327,2.333,2.3346,2.3353,2.3347,2.3373,2.3369,2.3371,2.3368,2.3369,2.337,2.3368,2.3346,0,0,0,0,0,2.3236,2.3248,2.3263,2.3277,2.3283,2.3293,2.3301,2.3305,2.3317,2.3322,2.3331,2.3342,2.3354,2.3362,2.3374,2.3391,2.3394,2.3398,2.3399,2.34,2.3402,2.3411,2.3413,2.3393,2.3393,2.3393,0,0,2.3239,2.325,2.3258,2.3277,2.3286,2.3299,2.3297,2.331,2.332,2.3323,2.334,2.3347,2.3359,2.3376,2.3384,2.3382,2.3408,2.3401,2.3402,2.3403,2.3412,2.3414,2.3415,2.3394,2.3394,2.3394,0,0,2.3252,2.3262,2.3275,2.3284,2.3298,2.3305,2.3308,2.3322,2.3327,2.3344,2.3347,2.3357,2.3379,2.3388,2.3395,2.341,2.3412,2.3414,2.3419,2.3428,2.343,2.3431,2.3437,2.3438,2.3415,2.3415,2.3415,0,2.3254,2.3274,2.3281,2.3295,2.3303,2.3307,2.332,2.3329,2.3346,2.3351,2.3349,2.3375,2.3384,2.3403,2.3407,2.3413,2.3416,2.3412,2.3429,2.3431,2.3432,2.3437,2.3439,2.3416,2.3416,2.3416,2.3416,0,2.3276,2.3289,2.3298,2.3315,2.3324,2.3337,2.3346,2.3355,2.3358,2.3365,2.3381,2.3392,2.3406,2.3411,2.3414,2.343,2.3428,2.3428,2.3424,2.3434,2.3439,2.3441,2.3416,2.3416,2.3416,2.3416,0,0,2.3289,2.3309,2.3312,2.332,2.3335,2.3345,2.3358,2.3372,2.3379,2.3391,2.3402,2.3419,2.3419,2.3427,2.3431,2.3439,2.345,2.3437,2.3438,2.3439,2.3468,2.3468,2.347,2.3451,2.3452,2.3452,2.3467,0,2.3303,2.3327,2.3334,2.3354,2.3366,2.337,2.3381,2.3392,2.3398,2.3409,2.3416,2.3428,2.3427,2.3432,2.344,2.3447,2.3456,2.3446,2.3461,2.3462,2.3458,2.3473,2.3474,2.3487,2.3469,2.3469,2.3469,0,2.3323,2.3336,2.3357,2.3371,2.3376,2.3386,2.3399,2.341,2.3421,2.3425,2.3434,2.3438,2.3451,2.3447,2.3465,2.3458,2.3464,2.3469,2.347,2.3471,2.3466,2.3475,2.3491,2.3493,2.3472,2.3472,2.3472,0,2.333,2.3352,2.3367,2.3373,2.339,2.3397,2.3404,2.3415,2.3423,2.3434,2.344,2.3452,2.3459,2.3469,2.3475,2.3471,2.3492,2.3489,2.3496,2.3496,2.35,2.35,2.3518,2.3504,2.3504,2.3504,2.3504,0,2.3346,2.3359,2.3371,2.338,2.3394,2.3402,2.3415,2.3422,2.3432,2.3443,2.3447,2.3457,2.3465,2.3475,2.3481,2.3495,2.3498,2.3501,2.3502,2.3501,2.35,2.3505,2.3504,2.3505,2.3505,2.3505,2.3505,0,2.3356,2.3364,2.3382,2.3396,2.3399,2.3409,2.3421,2.343,2.3437,2.345,2.3453,2.3463,2.3476,2.3484,2.35,2.3503,2.3518,2.3519,2.3515,2.3515,2.3522,2.3521,2.3543,2.3546,2.3531,2.3531,2.3531,0,2.3365,2.3375,2.339,2.3398,2.3405,2.3417,2.3425,2.3433,2.3441,2.3455,2.3462,2.3475,2.3486,2.3506,2.3514,2.3526,2.3527,2.3534,2.3529,2.3527,2.3527,2.3527,2.3527,2.3535,2.3535,2.3535,2.3535,0,2.3381,2.3385,2.3397,2.341,2.3419,2.343,2.3441,2.3446,2.3455,2.3464,2.3478,2.3486,2.3502,2.3515,2.3527,2.3534,2.3536,2.3537,2.3539,2.3538,2.3535,2.3536,2.3517,2.3536,2.3536,2.3536,2.3536,2.3536,2.3391,2.34,2.3412,2.3425,2.3434,2.3443,2.3452,2.346,2.3471,2.3485,2.3489,2.3503,2.3513,2.3531,2.3538,2.3548,2.3547,2.355,2.3551,2.3552,2.3552,2.3533,2.355,2.355,2.355,2.355,2.355,0,2.3407,2.3415,2.3427,2.3441,2.3451,2.3453,2.3464,2.3472,2.3484,2.3495,2.3505,2.352,2.3532,2.3541,2.3554,2.356,2.3561,2.3563,2.3563,2.3564,2.3552,2.3549,2.3562,2.3562,2.3562,2.3562,2.3562,2.3562,2.3416,2.3432,2.3436,2.3456,2.3463,2.3477,2.3483,2.3492,2.35,2.3517,2.3527,2.3533,2.3543,2.3556,2.3566,2.3569,2.3573,2.3575,2.3577,2.3566,2.3565,2.3564,2.3561,2.3576,2.3576,2.3588,2.3588,2.3588]},{"header":{"parameterUnit":"m.s-1","parameterCategory":1,"la1":30.2991,"la2":30.254,"lo1":-89.0895,"lo2":-89.0444,"dy":0.0017,"dx":0.0017,"nx":28,"ny":28,"refTime":"2024-07-17T09:00:00:Z","depth":0,"parameterNumber":3,"parameterNumberName":"V-component_of_WINDS"},"data":[0,0,0,0,0,0,0,0,0,0,0,0,0,0,0,0,0,0,0,0,0,0,0,0,0,0,0,0,0,0,0,0,0,0,0,0,0,0,0,0,0,0,0,0,0,0,0,0,0,0,0,0,0,0,0,0,0,0,1.6126,1.6126,0,1.6087,1.6086,1.6086,1.6067,1.6067,1.6067,1.6067,1.6025,1.6024,1.6023,0,0,0,0,0,0,0,0,0,0,0,0,0,1.6182,1.6181,1.6126,1.6126,1.6125,1.6087,1.6086,1.6086,1.6067,1.6067,1.6067,1.6067,1.6025,1.6024,1.6023,0,0,0,0,0,0,0,0,0,0,0,0,0,1.6152,1.6181,1.6126,1.6111,1.6109,1.6087,1.6086,1.6086,1.6067,1.6067,1.6067,1.6067,1.6026,1.6024,1.6023,1.6012,0,0,1.6017,1.6017,0,0,0,0,0,0,0,0,1.6154,1.615,1.6114,1.6112,1.611,1.6082,1.6091,1.6061,1.6067,1.6083,1.6067,1.6067,1.6044,1.6041,1.6033,1.601,1.6008,1.6017,1.6016,1.6016,1.6015,0,0,0,0,0,0,0,1.6156,1.6151,1.6111,1.6113,1.6111,1.6105,1.6101,1.6085,1.6064,1.6081,1.608,1.6076,1.6043,1.6035,1.6032,1.6008,1.6017,1.6016,1.6015,1.6014,1.5973,1.5973,0,0,0,0,0,0,1.6161,1.6153,1.6112,1.6109,1.6132,1.6104,1.61,1.6091,1.6064,1.606,1.6076,1.6075,1.6038,1.6034,1.6031,1.6016,1.6016,1.6014,1.6013,1.5973,1.5973,1.5973,0,0,0,0,0,0,1.6162,1.6157,1.6113,1.6131,1.6125,1.6103,1.6094,1.609,1.6082,1.606,1.6055,1.6072,1.6038,1.6033,1.6017,1.6014,1.6013,1.6012,1.5973,1.5973,1.5973,1.5987,0,0,0,0,0,0,1.6164,1.6158,1.6154,1.6131,1.6124,1.6101,1.6094,1.6089,1.6079,1.6078,1.6055,1.6051,1.6037,1.6019,1.6015,1.6012,1.601,1.5973,1.5973,1.5973,1.5986,1.5987,1.5988,0,0,0,0,0,1.6166,1.6159,1.6154,1.6149,1.6119,1.6101,1.6097,1.6082,1.6079,1.6075,1.606,1.6052,1.6015,1.6018,1.6013,1.6009,1.5973,1.5973,1.5973,1.5986,1.5987,1.5988,0,0,0,0,0,0,1.6182,1.6156,1.615,1.6136,1.6121,1.6098,1.6092,1.6083,1.6068,1.6067,1.6049,1.6044,1.6029,1.6017,1.6021,1.5997,1.5993,1.5992,1.6005,1.6006,1.6006,1.6009,1.6009,0,0,0,0,0,1.6184,1.6172,1.615,1.614,1.6132,1.6113,1.6105,1.6095,1.6078,1.6071,1.6055,1.6039,1.6024,1.6014,1.5999,1.5985,1.5979,1.5979,1.598,1.5981,1.598,1.597,1.597,1.5972,1.5972,1.5972,0,0,1.6188,1.6173,1.6166,1.6143,1.613,1.6117,1.6108,1.6095,1.6085,1.6069,1.6053,1.604,1.6021,1.6005,1.5998,1.5995,1.5978,1.598,1.5981,1.598,1.597,1.597,1.597,1.5972,1.5972,1.5972,0,0,1.6189,1.6176,1.6166,1.6153,1.6134,1.6121,1.6119,1.6097,1.6088,1.6071,1.6059,1.6046,1.6021,1.6007,1.5997,1.5992,1.5983,1.5987,1.599,1.5982,1.5981,1.5981,1.5979,1.5978,1.5986,1.5986,1.5986,0,1.6197,1.6177,1.6162,1.6149,1.6139,1.6124,1.6113,1.6101,1.6078,1.6071,1.6068,1.6035,1.6021,1.6002,1.6001,1.5993,1.5989,1.599,1.5983,1.5982,1.5982,1.5979,1.5978,1.5987,1.5987,1.5987,1.5987,0,1.6187,1.6174,1.6168,1.6146,1.6134,1.6123,1.6105,1.6095,1.6086,1.6073,1.6056,1.6039,1.6019,1.6014,1.6004,1.5993,1.5992,1.5986,1.5982,1.5983,1.598,1.5979,1.5988,1.5988,1.5988,1.5987,0,0,1.6197,1.6167,1.6165,1.6154,1.6131,1.612,1.6107,1.6089,1.6081,1.6065,1.6053,1.6031,1.6026,1.6014,1.6003,1.5995,1.5991,1.5991,1.599,1.5991,1.5977,1.5981,1.598,1.5985,1.5985,1.5985,1.5978,0,1.6194,1.6171,1.6157,1.6139,1.6126,1.6112,1.6101,1.6085,1.6073,1.6059,1.6045,1.603,1.6025,1.6017,1.6009,1.5994,1.5988,1.5994,1.5974,1.5973,1.5979,1.5978,1.5983,1.5977,1.5977,1.5977,1.5977,0,1.6188,1.6173,1.6154,1.6132,1.6126,1.6116,1.6098,1.6085,1.6067,1.6058,1.6045,1.6034,1.6019,1.6016,1.5995,1.5999,1.5989,1.5981,1.598,1.5977,1.5975,1.5975,1.5975,1.5974,1.5975,1.5975,1.5975,0,1.6197,1.6171,1.6157,1.6148,1.6122,1.6116,1.6104,1.6086,1.6075,1.6059,1.6052,1.6034,1.6024,1.6009,1.5993,1.5993,1.5973,1.5969,1.5965,1.5965,1.5961,1.5961,1.5959,1.5956,1.5956,1.5956,1.5956,0,1.6195,1.6184,1.616,1.6151,1.6138,1.6121,1.6108,1.6096,1.6079,1.6067,1.6053,1.6042,1.6021,1.6007,1.5994,1.5978,1.5974,1.5966,1.5962,1.5967,1.5967,1.596,1.596,1.5956,1.5956,1.5956,1.5956,0,1.6202,1.6186,1.6169,1.6146,1.614,1.6131,1.6111,1.6101,1.6088,1.6072,1.6067,1.6047,1.6029,1.6011,1.5988,1.5979,1.5963,1.5958,1.5969,1.5967,1.5963,1.5964,1.5956,1.5953,1.5953,1.5953,1.5953,0,1.6202,1.6193,1.6169,1.616,1.6149,1.6135,1.6124,1.6107,1.6096,1.6074,1.6066,1.6048,1.6032,1.6005,1.5987,1.5968,1.5963,1.5961,1.596,1.5965,1.5962,1.5963,1.5961,1.5962,1.5962,1.5962,1.5962,0,1.6203,1.6195,1.618,1.6163,1.615,1.6135,1.612,1.6113,1.6093,1.6081,1.6063,1.6051,1.6027,1.6008,1.5987,1.5975,1.5965,1.5963,1.5961,1.5965,1.5971,1.5967,1.597,1.5963,1.5963,1.5963,1.5963,1.5963,1.6206,1.6197,1.6178,1.6162,1.6149,1.6135,1.6124,1.611,1.6095,1.6074,1.6064,1.6046,1.6027,1.5998,1.5986,1.5971,1.5968,1.5965,1.5964,1.5964,1.5964,1.5974,1.5967,1.5967,1.5967,1.5967,1.5967,0,1.6205,1.6193,1.6178,1.6157,1.6144,1.6136,1.6118,1.6108,1.6092,1.6075,1.606,1.6039,1.6021,1.6002,1.5982,1.5974,1.5969,1.5969,1.5969,1.5966,1.5968,1.5972,1.5974,1.5974,1.5974,1.5974,1.5974,1.5974,1.6203,1.6188,1.6178,1.6155,1.6143,1.6125,1.6116,1.6102,1.6088,1.6066,1.6051,1.6038,1.602,1.5999,1.5982,1.5977,1.597,1.5972,1.5965,1.5967,1.5966,1.5966,1.5969,1.597,1.597,1.5964,1.5964,1.5964]}]]